Location: Unspecified
(0.0000°N, 0.0000°E)
Time: 23:31:08
(UTC+00:00)

N. Korean satellite - Pass Details

Date: 20 January 2019
Orbit: 458 x 509 km, 97.2° (Epoch: 19 January)

Event Time Altitude Azimuth Distance (km) Brightness Sun altitude
Rises 05:05:29 0° 41° (NE) 2,555 10.5 -15.3°
Reaches altitude 10° 05:08:17 10° 65° (ENE) 1,666 9.9 -14.7°
Maximum altitude 05:10:21 15° 101° (E) 1,392 10.1 -14.2°
Drops below altitude 10° 05:12:24 10° 136° (SE) 1,654 10.3 -13.7°
Sets 05:15:09 0° 161° (SSE) 2,524 10.8 -13.1°
